Weather History for KEZM - November, 2012

Change the Weather History Date:

Wednesday, November 28, 2012

  Actual Average (KMCN) Record (KMCN)
Temperature  
Mean Temperature 48 °F 52 °F  
Max Temperature 56 °F 65 °F 83 °F (1990)
Min Temperature 39 °F 40 °F 21 °F (2013)
Degree Days  
Heating Degree Days 17 13  
Month to date heating degree days 265  
Since 1 July heating degree days 368  
Cooling Degree Days 0 0  
Month to date cooling degree days 16  
Year to date cooling degree days 2160  
Moisture  
Dew Point 48 °F    
Average Humidity 87    
Maximum Humidity 97    
Minimum Humidity 67    
Precipitation  
Precipitation 0.00 in 0.13 in 1.96 in (1948)
Month to date precipitation 3.05  
Year to date precipitation 41.37  
Snow  
Snow - 0.00 in 0.00 in (2001)
Month to date snowfall 0.0  
Since 1 July snowfall 0.0  
Since 1 September snowfall 0.0  
Snow Depth -    
Sea Level Pressure  
Sea Level Pressure 30.33 in    
Wind  
Wind Speed 1 mph ()    
Max Wind Speed 6 mph    
Max Gust Speed -    
Visibility 6.1 miles    
Events Fog    
T = Trace of Precipitation, MM = Missing Value Source: Averaged Metar Reports

Daily Weather History Graph

Daily Weather History Graph

Search for Another Location

Airport or City:

Trip Planner

Search our weather history database for the weather conditions in past years. The results will help you decide how hot, cold, wet, or windy it might be!

Date:

Astronomy

Nov. 28, 2012 Rise Set
Actual Time 7:13 AM EST 5:27 PM EST
Civil Twilight 6:46 AM EST 5:54 PM EST
Nautical Twilight 6:16 AM EST 6:24 PM EST
Astronomical Twilight 5:47 AM EST 6:53 PM EST
Moon 5:42 PM EST (11/28) 7:10 AM EST (11/28)
Length of Visible Light 11h 07m
Length of Day
10h 14m
Full, 100% of the Moon is Illuminated
Nov 28
Full
Dec 6
Last Quarter
Dec 13
New
Dec 20
First Quarter
Dec 28
Full

Hourly Weather History & Observations

Time (EST) Temp. Dew Point Humidity Pressure Visibility Wind Dir Wind Speed Gust Speed Precip Events Conditions
12:15 AM 53.1 °F 52.0 °F 96% 30.22 in 0.5 mi Calm Calm - N/A Fog Fog
12:55 AM 53.8 °F 52.7 °F 96% 30.22 in 0.8 mi Calm Calm - N/A   Overcast
1:15 AM 54.0 °F 52.9 °F 96% 30.22 in 1.0 mi Calm Calm - N/A   Overcast
1:35 AM 54.1 °F 53.1 °F 96% 30.22 in 1.5 mi Calm Calm - N/A   Overcast
1:55 AM 54.1 °F 52.9 °F 95% 30.22 in 3.0 mi Calm Calm - N/A   Overcast
2:15 AM 54.0 °F 52.7 °F 95% 30.23 in 4.0 mi Calm Calm - N/A   Overcast
2:35 AM 54.0 °F 52.5 °F 95% 30.23 in 4.0 mi Calm Calm - N/A   Overcast
2:55 AM 54.0 °F 52.2 °F 94% 30.23 in 5.0 mi Calm Calm - N/A   Overcast
3:15 AM 53.8 °F 52.0 °F 94% 30.24 in 5.0 mi Calm Calm - N/A   Overcast
3:35 AM 53.8 °F 51.6 °F 92% 30.25 in 7.0 mi NW 3.5 mph - N/A   Overcast
3:55 AM 53.4 °F 51.1 °F 92% 30.25 in 7.0 mi NW 4.6 mph - N/A   Overcast
4:15 AM 52.9 °F 50.5 °F 92% 30.25 in 7.0 mi Calm Calm - N/A   Overcast
4:35 AM 52.5 °F 50.0 °F 91% 30.25 in 7.0 mi NW 4.6 mph - N/A   Overcast
4:55 AM 51.8 °F 49.3 °F 91% 30.26 in 7.0 mi North 5.8 mph - N/A   Overcast
5:15 AM 51.3 °F 49.3 °F 93% 30.27 in 5.0 mi NW 3.5 mph - N/A   Overcast
5:35 AM 50.9 °F 48.7 °F 92% 30.28 in 5.0 mi NNW 3.5 mph - N/A   Overcast
5:55 AM 50.5 °F 48.4 °F 92% 30.28 in 5.0 mi Calm Calm - N/A   Overcast
6:15 AM 50.2 °F 48.2 °F 93% 30.29 in 5.0 mi Calm Calm - N/A   Overcast
6:35 AM 50.0 °F 48.2 °F 94% 30.30 in 5.0 mi Calm Calm - N/A   Overcast
6:55 AM 49.6 °F 47.7 °F 93% 30.30 in 5.0 mi NW 3.5 mph - N/A   Overcast
7:15 AM 49.5 °F 47.5 °F 93% 30.31 in 7.0 mi WNW 4.6 mph - N/A   Overcast
7:35 AM 49.3 °F 47.1 °F 92% 30.32 in 7.0 mi Calm Calm - N/A   Overcast
7:55 AM 49.5 °F 47.1 °F 92% 30.32 in 7.0 mi Calm Calm - N/A   Overcast
8:15 AM 49.5 °F 46.9 °F 91% 30.32 in 7.0 mi NNW 4.6 mph - N/A   Overcast
8:35 AM 49.6 °F 46.4 °F 89% 30.33 in 7.0 mi NNW 5.8 mph - N/A   Overcast
8:55 AM 49.6 °F 45.7 °F 86% 30.35 in 10.0 mi NNW 4.6 mph - N/A   Overcast
9:15 AM 50.0 °F 45.9 °F 86% 30.35 in 10.0 mi North 4.6 mph - N/A   Overcast
9:35 AM 50.2 °F 45.7 °F 85% 30.36 in 7.0 mi NNW 5.8 mph - N/A   Overcast
9:55 AM 50.4 °F 46.4 °F 86% 30.36 in 7.0 mi NNW 3.5 mph - N/A   Overcast
10:15 AM 50.9 °F 46.8 °F 86% 30.37 in 7.0 mi Calm Calm - N/A   Overcast
10:35 AM 51.3 °F 46.8 °F 85% 30.37 in 7.0 mi Calm Calm - N/A   Overcast
10:55 AM 51.8 °F 47.1 °F 84% 30.38 in 7.0 mi NNW 3.5 mph - N/A   Overcast
11:15 AM 51.8 °F 47.5 °F 85% 30.38 in 7.0 mi North 3.5 mph - N/A   Overcast
11:35 AM 52.2 °F 47.8 °F 85% 30.38 in 5.0 mi North 4.6 mph - N/A   Overcast
11:55 AM 52.7 °F 48.6 °F 86% 30.37 in 5.0 mi Calm Calm - N/A   Overcast
12:15 PM 52.7 °F 48.4 °F 85% 30.37 in 5.0 mi North 3.5 mph - N/A   Haze
12:35 PM 53.1 °F 48.6 °F 85% 30.37 in 5.0 mi NE 3.5 mph - N/A   Overcast
12:55 PM 54.1 °F 48.9 °F 82% 30.36 in 7.0 mi North 3.5 mph - N/A   Overcast
1:15 PM 54.7 °F 48.9 °F 81% 30.35 in 7.0 mi North 3.5 mph - N/A   Overcast
1:35 PM 55.0 °F 48.6 °F 79% 30.35 in 7.0 mi NNE 5.8 mph - N/A   Overcast
1:55 PM 55.4 °F 48.4 °F 77% 30.34 in 7.0 mi NNE 5.8 mph - N/A   Overcast
2:15 PM 55.6 °F 47.5 °F 74% 30.33 in 7.0 mi ENE 3.5 mph - N/A   Overcast
2:35 PM 55.8 °F 47.5 °F 74% 30.33 in 10.0 mi ENE 3.5 mph - N/A   Overcast
2:55 PM 56.5 °F 47.5 °F 72% 30.32 in 10.0 mi ENE 5.8 mph - N/A   Overcast
3:15 PM 56.7 °F 46.4 °F 69% 30.32 in 10.0 mi NNE 5.8 mph - N/A   Overcast
3:35 PM 56.5 °F 47.3 °F 71% 30.32 in 10.0 mi Calm Calm - N/A   Overcast
3:55 PM 56.7 °F 45.7 °F 67% 30.32 in 10.0 mi Calm Calm - N/A   Overcast
4:15 PM 56.5 °F 45.9 °F 68% 30.33 in 10.0 mi Calm Calm - N/A   Overcast
4:35 PM 56.5 °F 45.9 °F 68% 30.34 in 10.0 mi Calm Calm - N/A   Overcast
4:55 PM 56.5 °F 45.7 °F 67% 30.35 in 10.0 mi Calm Calm - N/A   Overcast
5:15 PM 55.8 °F 46.9 °F 72% 30.34 in 10.0 mi Calm Calm - N/A   Overcast
5:35 PM 55.2 °F 47.5 °F 75% 30.34 in 10.0 mi Calm Calm - N/A   Overcast
5:55 PM 54.5 °F 48.0 °F 79% 30.35 in 10.0 mi Calm Calm - N/A   Overcast
6:15 PM 54.0 °F 48.6 °F 82% 30.35 in 10.0 mi Calm Calm - N/A   Overcast
6:35 PM 53.6 °F 49.5 °F 86% 30.36 in 10.0 mi Calm Calm - N/A   Overcast
6:55 PM 53.8 °F 48.2 °F 81% 30.36 in 10.0 mi Calm Calm - N/A   Overcast
7:15 PM 53.6 °F 48.2 °F 82% 30.37 in 10.0 mi Calm Calm - N/A   Overcast
7:35 PM 54.0 °F 48.7 °F 82% 30.37 in 10.0 mi Calm Calm - N/A   Overcast
7:55 PM 52.7 °F 47.3 °F 82% 30.38 in 10.0 mi Calm Calm - N/A   Mostly Cloudy
8:15 PM 51.6 °F 46.8 °F 83% 30.38 in 10.0 mi Calm Calm - N/A   Mostly Cloudy
8:35 PM 48.2 °F 45.7 °F 91% 30.38 in 7.0 mi Calm Calm - N/A   Scattered Clouds
8:55 PM 46.8 °F 45.5 °F 95% 30.39 in 0.2 mi Calm Calm - N/A Fog Fog
9:15 PM 47.3 °F 46.4 °F 97% 30.39 in 0.5 mi Calm Calm - N/A Fog Fog
9:35 PM 43.7 °F 42.6 °F 96% 30.40 in 0.2 mi Calm Calm - N/A Fog Fog
9:55 PM 44.4 °F 43.3 °F 96% 30.40 in 0.2 mi Calm Calm - N/A Fog Fog
10:15 PM 44.2 °F 43.2 °F 96% 30.40 in 0.2 mi Calm Calm - N/A Fog Fog
10:35 PM 41.9 °F 41.0 °F 97% 30.40 in 0.2 mi Calm Calm - N/A Fog Fog
10:55 PM 41.7 °F 40.5 °F 95% 30.40 in 0.2 mi Calm Calm - N/A Fog Fog
11:15 PM 40.3 °F 39.4 °F 97% 30.41 in 0.2 mi Calm Calm - N/A Fog Fog
11:35 PM 40.3 °F 39.4 °F 97% 30.40 in 0.2 mi Calm Calm - N/A Fog Fog
11:55 PM 39.0 °F 37.9 °F 96% 30.40 in 0.2 mi Calm Calm - N/A Fog Fog